Retour au catalogue

ONEWEB-0540

ActifCommunicationsPO
NORAD 54645·PAYLOAD·🇬🇧 United Kingdom

Lancé Dec 8, 2022 depuis Cape Canaveral Space Force Station

Loading…

Prochains Passages (prochaines 24 heures)

TLE

FraisSource: CelesTrak SupGP

Époque: Sep 14, 2026, 15:25 UTC

1 54645C 22166D   26257.64251574 -.00000322  00000+0 -78000-3 0  2570
2 54645  87.9270 226.1927 0002150  85.8293  23.0728 13.21821604    12

Suivez ONEWEB-0540 en temps réel avec AllMySat

Download on the App Store